VK5KJP Weather Reports


Display with metric or nautical units.
time (UTC)temp
F
wind
direction
speed
MPH
gust
MPH
rain 1hr
in
rain 24hr
in
rain mn
in
humidity
%
barometer
mb
20260503203536 56 272 13.0 15.0 0.02 0.36 0.02 91 1015.2
20260503202549 56 294 11.0 15.0 0.02 0.36 0.02 91 1014.9
20260503201549 57 289 12.0 15.0 0.02 0.36 0.02 91 1014.9
20260503200609 57 267 14.0 19.0 0.02 0.36 0.02 90 1014.9
20260503195549 57 290 13.0 17.0 0.00 0.35 0.00 90 1014.8
20260503194526 57 272 11.0 13.0 0.00 0.35 0.00 89 1014.9
20260503193610 56 280 13.0 15.0 0.00 0.35 0.00 89 1014.8
20260503192536 56 281 12.0 15.0 0.00 0.35 0.00 89 1014.7
20260503191549 56 266 11.0 15.0 0.00 0.35 0.00 89 1014.6
20260503190549 56 281 13.0 15.0 0.00 0.35 0.00 89 1014.6
20260503185609 56 290 12.0 15.0 0.00 0.35 0.00 89 1014.6
20260503184549 56 276 12.0 16.0 0.00 0.35 0.00 88 1014.6
20260503183526 56 290 11.0 14.0 0.00 0.35 0.00 88 1014.6
20260503182549 56 262 12.0 16.0 0.00 0.35 0.00 88 1014.4
20260503181536 56 282 12.0 16.0 0.00 0.35 0.00 88 1014.4
20260503180549 56 281 13.0 15.0 0.00 0.35 0.00 88 1014.4
20260503175609 57 286 11.0 13.0 0.00 0.35 0.00 88 1014.4
20260503174549 57 266 12.0 15.0 0.00 0.35 0.00 88 1014.5
20260503173549 56 281 14.0 16.0 0.00 0.35 0.00 88 1014.5
20260503172526 56 272 14.0 16.0 0.00 0.35 0.00 89 1014.5
20260503171549 56 274 12.0 14.0 0.00 0.35 0.00 89 1014.5
20260503170536 56 272 12.0 18.0 0.00 0.35 0.00 88 1014.5
20260503150526 57 284 14.0 16.0 0.00 0.35 0.00 86 1014.7
20260503130549 56 274 12.0 15.0 0.00 0.33 0.33 87 1015.4
20260503110549 55 279 11.0 14.0 0.00 0.33 0.33 91 1014.9
20260503081634 57 266 12.0 15.0 0.11 0.11 0.11 91 1013.6
20260503080526 59 258 14.0 16.0 0.09 0.09 0.09 89 1013.7
20260503072609 61 289 13.0 16.0 0.00 0.00 0.00 73 1013.0
20260503071548 61 292 13.0 17.0 0.00 0.00 0.00 75 1013.1
20260503070548 62 285 14.0 16.0 0.00 0.00 0.00 75 1013.1
20260503054527 59 262 15.0 20.0 0.00 0.00 0.00 86 1013.2
20260503053608 58 260 16.0 19.0 0.00 0.00 0.00 88 1013.2
20260503052557 61 262 18.0 23.0 0.00 0.00 0.00 87 1013.3
20260503051548 65 262 24.0 33.0 0.00 0.00 0.00 63 1013.0
20260503050548 67 265 19.0 23.0 0.00 0.00 0.00 52 1012.6
20260503045608 67 274 19.0 24.0 0.00 0.00 0.00 52 1012.5
20260503044709 66 302 19.0 23.0 0.00 0.00 0.00 54 1012.6
20260503043526 67 301 20.0 27.0 0.00 0.00 0.00 53 1012.6
20260503042548 67 272 25.0 44.0 0.00 0.00 0.00 54 1012.6
20260503041537 66 303 20.0 23.0 0.00 0.00 0.00 55 1012.7
20260503040548 63 280 18.0 23.0 0.00 0.00 0.00 62 1012.8
20260503035629 65 285 20.0 26.0 0.00 0.00 0.00 66 1013.0
20260503034608 66 280 22.0 26.0 0.00 0.02 0.00 52 1012.9
20260503033548 66 263 22.0 30.0 0.00 0.02 0.00 53 1013.0
20260503032526 65 282 22.0 26.0 0.00 0.02 0.00 57 1013.0
20260503031548 65 277 22.0 28.0 0.00 0.02 0.00 61 1013.1
20260503030537 67 273 22.0 26.0 0.00 0.03 0.00 59 1013.3
20260503025548 67 282 21.0 27.0 0.00 0.06 0.00 56 1013.2
20260503024548 67 288 23.0 28.0 0.00 0.08 0.00 54 1013.3
20260503023548 67 282 21.0 24.0 0.00 0.08 0.00 51 1013.4
20260503022548 66 276 22.0 28.0 0.00 0.08 0.00 55 1013.4
20260503021527 66 265 23.0 28.0 0.00 0.08 0.00 56 1013.6
20260503020548 65 287 23.0 29.0 0.00 0.08 0.00 57 1013.6
20260503015537 65 270 23.0 28.0 0.00 0.08 0.00 58 1013.6
20260503014548 64 303 23.0 30.0 0.00 0.08 0.00 57 1013.6
20260503013548 64 291 20.0 24.0 0.00 0.08 0.00 65 1013.7
20260503012548 64 285 18.0 28.0 0.00 0.08 0.00 64 1013.7
20260503011608 64 300 18.0 25.0 0.00 0.08 0.00 63 1013.7
20260503010527 63 310 20.0 27.0 0.00 0.08 0.00 65 1013.9
20260503005548 63 280 21.0 25.0 0.00 0.08 0.00 65 1013.9
20260503004537 63 277 17.0 23.0 0.00 0.08 0.00 66 1013.9
20260503003628 63 303 18.0 25.0 0.00 0.08 0.00 66 1013.9
20260503002548 62 310 19.0 25.0 0.00 0.08 0.00 66 1014.1
20260503001548 62 288 20.0 26.0 0.00 0.08 0.00 67 1014.2
20260503000548 61 288 19.0 27.0 0.00 0.08 0.00 68 1014.1
20260502235527 61 301 20.0 26.0 0.00 0.08 0.00 69 1013.9
20260502234548 61 285 16.0 24.0 0.00 0.08 0.00 70 1013.8
20260502233537 60 303 17.0 19.0 0.00 0.08 0.00 70 1013.9
20260502232548 60 288 17.0 22.0 0.00 0.08 0.00 72 1013.9
20260502231548 59 292 16.0 19.0 0.00 0.08 0.00 73 1014.0
20260502230548 58 303 15.0 16.0 0.00 0.08 0.00 75 1014.1
20260502225548 58 291 15.0 17.0 0.00 0.08 0.00 76 1014.1
20260502224526 57 293 14.0 16.0 0.00 0.08 0.00 78 1014.2
20260502223548 56 297 13.0 15.0 0.00 0.08 0.00 80 1014.0
20260502222537 56 298 14.0 16.0 0.00 0.08 0.00 81 1014.0
20260502221548 55 303 15.0 16.0 0.00 0.08 0.00 82 1014.0
20260502220548 55 295 14.0 16.0 0.00 0.08 0.00 83 1014.0
20260502215548 54 306 13.0 15.0 0.00 0.08 0.00 84 1013.9
20260502214548 53 301 12.0 14.0 0.00 0.08 0.00 85 1013.9
20260502213527 53 293 11.0 14.0 0.00 0.08 0.00 86 1013.8
20260502212548 53 306 10.0 13.0 0.00 0.08 0.00 86 1013.7
20260502211537 54 301 10.0 12.0 0.00 0.08 0.00 85 1013.7
20260502210548 54 313 12.0 13.0 0.00 0.08 0.00 86 1013.6
20260502205548 54 307 11.0 13.0 0.00 0.08 0.00 86 1013.5
20260502204548 54 304 10.0 14.0 0.00 0.08 0.00 86 1013.4